Weather History for Puyallup, WA

Change the Weather History Date:

Monday, February 25, 2013

  Actual Average (KTCM) Record (KTCM)
Temperature  
Mean Temperature 42 °F -  
Max Temperature 48 °F 48 °F 61 °F (1991)
Min Temperature 37 °F 30 °F 18 °F (1962)
Degree Days  
Heating Degree Days 22    
Moisture  
Dew Point 36 °F    
Average Humidity 81    
Maximum Humidity 100    
Minimum Humidity 46    
Precipitation  
Precipitation 0.06 in - - ()
Sea Level Pressure  
Sea Level Pressure 30.12 in    
Wind  
Wind Speed 10 mph (SW)    
Max Wind Speed 16 mph    
Max Gust Speed 28 mph    
Visibility 10 miles    
Events Rain    
Averages and records for this station are not official NWS values.
T = Trace of Precipitation, MM = Missing Value Source: NWS Daily Summary

Daily Weather History Graph

Daily Weather History Graph

Search for Another Location

Airport:

Trip Planner

Search our weather history database for the weather conditions in past years. The results will help you decide how hot, cold, wet, or windy it might be!

Date:

Astronomy

Feb. 25, 2013 Rise Set
Actual Time 6:55 AM PST 5:49 PM PST
Civil Twilight 6:25 AM PST 6:19 PM PST
Nautical Twilight 5:49 AM PST 6:55 PM PST
Astronomical Twilight 5:14 AM PST 7:30 PM PST
Moon 6:12 PM PST (2/25) 6:26 AM PST (2/25)
Length of Visible Light 11h 54m
Length of Day
10h 53m
Full, 100% of the Moon is Illuminated
Feb 25
Full
Feb 25
Full
Mar 4
Last Quarter
Mar 11
New
Mar 19
First Quarter

Hourly Weather History & Observations

Time (PST) Temp. Windchill Dew Point Humidity Pressure Visibility Wind Dir Wind Speed Gust Speed Precip Events Conditions
12:15 AM 44.6 °F 38.1 °F 33.8 °F 66% 29.95 in 9.0 mi SSW 13.8 mph 20.7 mph N/A Rain Light Rain
12:35 AM 41.0 °F 36.4 °F 35.6 °F 81% 29.94 in 9.0 mi South 6.9 mph - N/A Rain Light Rain
12:55 AM 41.0 °F 35.2 °F 37.4 °F 87% 29.93 in 6.0 mi South 9.2 mph 19.6 mph 0.01 in Rain Light Rain
1:15 AM 41.0 °F 34.3 °F 37.4 °F 87% 29.91 in 10.0 mi South 11.5 mph 18.4 mph N/A Rain Light Rain
1:35 AM 41.0 °F 35.8 °F 37.4 °F 87% 29.91 in 10.0 mi South 8.1 mph - 0.01 in Rain Light Rain
2:15 AM 41.0 °F 36.4 °F 37.4 °F 87% 29.92 in 7.0 mi SW 6.9 mph - 0.02 in Rain Light Rain
2:35 AM 41.0 °F 36.4 °F 39.2 °F 93% 29.93 in 5.0 mi SSW 6.9 mph - 0.03 in Rain Light Rain
2:55 AM 41.0 °F 35.8 °F 39.2 °F 93% 29.95 in 8.0 mi SW 8.1 mph - 0.03 in Rain Light Rain
3:15 AM 39.2 °F 33.6 °F 39.2 °F 100% 29.95 in 10.0 mi SW 8.1 mph - N/A   Mostly Cloudy
3:35 AM 41.0 °F 35.8 °F 39.2 °F 93% 29.96 in 10.0 mi SSW 8.1 mph - N/A   Overcast
3:55 AM 41.0 °F 35.2 °F 39.2 °F 93% 29.97 in 10.0 mi SSW 9.2 mph 17.3 mph N/A   Overcast
4:15 AM 41.0 °F 37.1 °F 39.2 °F 93% 29.98 in 9.0 mi SW 5.8 mph - N/A   Overcast
4:35 AM 41.0 °F 35.8 °F 39.2 °F 93% 29.98 in 10.0 mi SSW 8.1 mph - N/A   Overcast
4:55 AM 41.0 °F 36.4 °F 39.2 °F 93% 29.99 in 10.0 mi SSW 6.9 mph - N/A   Overcast
5:15 AM 41.0 °F 37.1 °F 39.2 °F 93% 30.00 in 10.0 mi SSW 5.8 mph - N/A Rain Light Rain
5:35 AM 41.0 °F 35.2 °F 39.2 °F 93% 30.01 in 10.0 mi SW 9.2 mph - N/A   Mostly Cloudy
5:55 AM 39.2 °F 33.0 °F 39.2 °F 100% 30.01 in 10.0 mi SW 9.2 mph - N/A   Overcast
6:15 AM 39.2 °F 33.6 °F 37.4 °F 93% 30.01 in 10.0 mi SSW 8.1 mph 16.1 mph N/A   Mostly Cloudy
6:35 AM 39.2 °F 33.6 °F 37.4 °F 93% 30.02 in 10.0 mi SW 8.1 mph - N/A   Overcast
6:55 AM 39.2 °F 32.5 °F 37.4 °F 93% 30.01 in 10.0 mi SW 10.4 mph 17.3 mph N/A   Mostly Cloudy
7:15 AM 39.2 °F 33.0 °F 37.4 °F 93% 30.02 in 9.0 mi SSW 9.2 mph 16.1 mph N/A Rain Light Rain
7:55 AM 39.2 °F 32.0 °F 37.4 °F 93% 30.04 in 8.0 mi SW 11.5 mph - 0.01 in Rain Light Rain
8:15 AM 39.2 °F 32.0 °F 37.4 °F 93% 30.05 in 10.0 mi SW 11.5 mph 17.3 mph N/A   Mostly Cloudy
8:35 AM 39.2 °F 31.6 °F 37.4 °F 93% 30.06 in 10.0 mi SW 12.7 mph 16.1 mph N/A   Mostly Cloudy
8:55 AM 39.2 °F 33.0 °F 37.4 °F 93% 30.07 in 10.0 mi WSW 9.2 mph 18.4 mph N/A Rain Light Rain
9:15 AM 39.2 °F 32.0 °F 37.4 °F 93% 30.07 in 9.0 mi WSW 11.5 mph 19.6 mph N/A Rain Light Rain
9:35 AM 39.2 °F 32.0 °F 37.4 °F 93% 30.08 in 8.0 mi WSW 11.5 mph 21.9 mph N/A Rain Light Rain
9:55 AM 41.0 °F 34.7 °F 39.2 °F 93% 30.09 in 10.0 mi WSW 10.4 mph 17.3 mph N/A   Mostly Cloudy
10:15 AM 41.0 °F 35.8 °F 39.2 °F 93% 30.10 in 8.0 mi WSW 8.1 mph 17.3 mph N/A Rain Light Rain
10:35 AM 41.0 °F 33.5 °F 37.4 °F 87% 30.11 in 9.0 mi WSW 13.8 mph 18.4 mph N/A   Mostly Cloudy
10:55 AM 42.8 °F 35.8 °F 37.4 °F 81% 30.10 in 10.0 mi WSW 13.8 mph 21.9 mph N/A   Mostly Cloudy
11:15 AM 44.6 °F 38.4 °F 37.4 °F 76% 30.11 in 10.0 mi WSW 12.7 mph 19.6 mph N/A   Scattered Clouds
11:35 AM 44.6 °F 39.7 °F 37.4 °F 76% 30.13 in 8.0 mi WSW 9.2 mph 18.4 mph N/A Rain Light Rain
11:55 AM 42.8 °F 37.0 °F 39.2 °F 87% 30.14 in 10.0 mi WSW 10.4 mph - N/A   Scattered Clouds
12:15 PM 44.6 °F 40.7 °F 37.4 °F 76% 30.14 in 10.0 mi WSW 6.9 mph - N/A   Mostly Cloudy
12:35 PM 44.6 °F 38.8 °F 37.4 °F 76% 30.14 in 10.0 mi West 11.5 mph 17.3 mph N/A   Mostly Cloudy
12:55 PM 46.4 °F 40.1 °F 35.6 °F 66% 30.14 in 10.0 mi West 15.0 mph 19.6 mph N/A   Mostly Cloudy
1:15 PM 46.4 °F 39.8 °F 32.0 °F 57% 30.14 in 10.0 mi West 16.1 mph 21.9 mph N/A   Mostly Cloudy
1:35 PM 48.2 °F - 32.0 °F 54% 30.15 in 10.0 mi West 12.7 mph 21.9 mph N/A   Mostly Cloudy
1:55 PM 48.2 °F - 32.0 °F 54% 30.15 in 10.0 mi West 13.8 mph 20.7 mph N/A   Scattered Clouds
2:15 PM 48.2 °F - 32.0 °F 54% 30.15 in 10.0 mi WSW 15.0 mph 20.7 mph N/A   Mostly Cloudy
2:35 PM 48.2 °F - 30.2 °F 50% 30.15 in 10.0 mi WSW 9.2 mph 18.4 mph N/A   Mostly Cloudy
2:55 PM 48.2 °F - 28.4 °F 46% 30.15 in 10.0 mi West 11.5 mph 16.1 mph N/A   Mostly Cloudy
3:15 PM 46.4 °F 40.1 °F 28.4 °F 50% 30.16 in 10.0 mi West 15.0 mph 27.6 mph N/A   Mostly Cloudy
3:35 PM 46.4 °F 41.5 °F 32.0 °F 57% 30.17 in 10.0 mi WSW 10.4 mph 21.9 mph N/A   Mostly Cloudy
3:55 PM 44.6 °F 39.7 °F 32.0 °F 61% 30.18 in 10.0 mi SW 9.2 mph 23.0 mph N/A   Mostly Cloudy
4:15 PM 44.6 °F 39.2 °F 32.0 °F 61% 30.18 in 10.0 mi SW 10.4 mph 16.1 mph N/A   Mostly Cloudy
4:35 PM 44.6 °F 38.8 °F 33.8 °F 66% 30.19 in 10.0 mi SW 11.5 mph 17.3 mph N/A   Overcast
4:55 PM 44.6 °F 38.4 °F 35.6 °F 71% 30.19 in 10.0 mi WSW 12.7 mph 19.6 mph N/A   Mostly Cloudy
5:15 PM 41.0 °F 35.8 °F 33.8 °F 76% 30.19 in 10.0 mi SW 8.1 mph - N/A   Mostly Cloudy
5:35 PM 41.0 °F 35.8 °F 33.8 °F 76% 30.20 in 10.0 mi SW 8.1 mph - N/A   Mostly Cloudy
5:55 PM 41.0 °F 36.4 °F 35.6 °F 81% 30.21 in 10.0 mi SW 6.9 mph - N/A   Mostly Cloudy
6:15 PM 41.0 °F 35.8 °F 35.6 °F 81% 30.22 in 10.0 mi SW 8.1 mph - N/A   Scattered Clouds
6:35 PM 39.2 °F 33.6 °F 35.6 °F 87% 30.23 in 10.0 mi SW 8.1 mph - N/A   Mostly Cloudy
6:55 PM 39.2 °F 35.0 °F 35.6 °F 87% 30.24 in 10.0 mi SSW 5.8 mph - N/A   Mostly Cloudy
7:15 PM 39.2 °F 33.6 °F 35.6 °F 87% 30.24 in 10.0 mi SSW 8.1 mph - N/A   Mostly Cloudy
7:35 PM 39.2 °F 33.0 °F 35.6 °F 87% 30.24 in 10.0 mi SSW 9.2 mph - N/A   Scattered Clouds
7:55 PM 39.2 °F 33.6 °F 33.8 °F 81% 30.25 in 10.0 mi SSW 8.1 mph - N/A   Scattered Clouds
8:15 PM 39.2 °F 35.0 °F 33.8 °F 81% 30.26 in 10.0 mi SSW 5.8 mph - N/A   Mostly Cloudy
8:35 PM 39.2 °F 33.0 °F 33.8 °F 81% 30.27 in 10.0 mi SSW 9.2 mph - N/A   Mostly Cloudy
8:55 PM 39.2 °F 34.2 °F 33.8 °F 81% 30.28 in 10.0 mi SSW 6.9 mph - N/A   Scattered Clouds
9:15 PM 39.2 °F 33.6 °F 33.8 °F 81% 30.28 in 10.0 mi SSW 8.1 mph - N/A   Scattered Clouds
9:35 PM 37.4 °F 32.8 °F 33.8 °F 87% 30.29 in 10.0 mi SW 5.8 mph - N/A   Scattered Clouds
9:55 PM 37.4 °F 33.8 °F 33.8 °F 87% 30.29 in 10.0 mi SSW 4.6 mph - N/A   Partly Cloudy
10:15 PM 37.4 °F 33.8 °F 33.8 °F 87% 30.30 in 10.0 mi SSW 4.6 mph - N/A   Mostly Cloudy
10:35 PM 37.4 °F 33.8 °F 33.8 °F 87% 30.30 in 10.0 mi South 4.6 mph - N/A   Mostly Cloudy
10:55 PM 37.4 °F 33.8 °F 32.0 °F 81% 30.30 in 10.0 mi SSW 4.6 mph - N/A   Mostly Cloudy
11:15 PM 37.4 °F 33.8 °F 32.0 °F 81% 30.31 in 10.0 mi SSW 4.6 mph - N/A   Scattered Clouds
11:35 PM 37.4 °F 33.8 °F 32.0 °F 81% 30.31 in 10.0 mi SSW 4.6 mph - N/A   Mostly Cloudy
11:55 PM 37.4 °F 34.9 °F 32.0 °F 81% 30.31 in 10.0 mi SSW 3.5 mph - N/A   Scattered Clouds